User: anonymous   Login
Location: Buckeye Ditch
(40.9104°N, 122.9517°W)
Time: 02:19:31
(UTC+00:00)
Language:

YAOGAN 11 - Orbit

View from above orbital plane
View from above orbital plane
View from above satellite
View from above satellite

Ground track
Ground track

The orbit data is extracted from the following two-line orbital elements,

1 37165U 10047A   24167.51338483  .00001759  00000-0  24273-3 0  9992
2 37165  98.4348 346.1994 0037798  67.4788 293.0416 14.79078669739809
Epoch (UTC): 15 June 2024 12:19:16
Eccentricity: 0.0037798
inclination: 98.4348°
perigee height: 606 km
apogee height: 659 km
right ascension of ascending node: 346.1994°
argument of perigee: 67.4788°
revolutions per day: 14.79078669
mean anomaly at epoch: 293.0416°
orbit number at epoch: 73980

The dashed part of the orbit path shows where the satellite is in the earth's shadow,  

DLR